Wind_Speed
11 12 10 9 6 7 9 8 11 8 8 9 9 9 7 10 8 6 6 4 4 2 1 1 1 2 2 1 2 2 1 1 1 1 1 1 1 2 3 3 4 5 5 6 7 7 7 8 8
15 12 12 9 8 10 12 12 10 7 7 6 8 8 8 8 8 3 3 4 4 3 3 2 1 1 1 1 2 2 1 0 1 2 2 2 3 4 4 4 5 5 5 6 6 7 7 8 8
15 14 13 9 13 14 11 12 9 8 7 6 5 4 4 4 3 2 3 4 4 5 5 3 2 2 2 2 2 1 1 2 2 2 3 3 3 4 5 5 6 6 7 7 7 8 8 9 9
16 15 14 14 13 12 10 9 11 9 6 6 5 5 6 5 3 3 3 4 5 5 4 3 2 2 2 3 4 4 5 6 6 5 5 4 4 3 4 5 5 6 6 6 6 6 6 7 8
18 18 16 15 19 16 10 10 11 9 8 6 8 5 5 4 3 3 3 4 4 5 4 2 1 1 3 4 3 4 4 4 4 5 5 5 4 3 5 6 7 7 7 6 6 6 7 8 9
21 20 17 21 20 14 12 13 13 12 8 7 7 6 6 1 2 3 5 6 6 5 3 2 2 2 4 4 4 4 4 5 5 5 4 7 9 10 11 11 10 10 10 10 10 10 11 11 11
25 24 23 22 20 20 13 12 16 11 7 9 7 6 5 2 2 3 5 6 6 7 4 2 2 5 5 3 2 2 3 5 7 9 11 12 12 13 13 13 13 12 12 12 12 12 12 11 11
27 26 27 25 21 19 14 15 14 13 10 10 9 5 4 1 3 5 5 6 6 5 3 4 5 10 10 5 4 4 8 10 10 11 12 13 13 13 14 13 12 11 11 11 11 10 9 9 8
30 30 31 28 23 21 14 14 17 16 16 13 9 7 5 1 3 4 5 5 5 3 1 4 7 6 8 9 5 5 10 10 10 11 12 11 11 11 11 9 9 8 8 7 7 7 5 4 5
34 37 35 29 25 22 21 16 20 20 20 18 14 10 7 3 3 4 5 6 6 2 1 9 7 7 8 9 7 7 11 12 12 12 11 11 11 10 9 8 7 6 6 5 4 4 3 3 4
38 41 34 31 27 24 22 18 25 25 24 14 9 8 8 7 5 4 4 5 4 1 3 7 6 5 5 9 11 11 14 14 12 12 12 11 10 8 7 6 6 5 5 4 3 3 4 5 6
38 38 34 32 30 22 27 20 23 29 26 16 14 13 11 10 6 4 3 5 5 3 1 2 2 4 6 8 11 13 18 16 14 13 13 11 9 7 6 6 6 5 4 3 3 3 5 6 8
39 37 34 33 32 30 21 17 20 23 26 25 18 19 17 12 8 6 5 5 6 5 3 2 3 7 8 7 12 18 22 16 14 14 13 11 9 7 6 7 6 6 5 5 5 6 7 8 10
37 34 34 34 34 31 28 23 20 23 23 26 23 17 18 13 11 8 6 6 6 7 5 6 8 11 10 10 10 16 22 16 14 13 12 11 9 7 7 7 7 8 8 8 8 9 9 11 12
34 25 32 36 35 32 30 30 26 26 25 28 22 18 19 16 16 11 8 6 6 6 8 10 13 12 11 12 18 21 24 16 15 15 13 11 9 8 8 9 9 10 10 11 11 12 13 13 15
31 30 27 37 31 25 25 35 29 23 27 28 23 20 21 19 17 12 7 6 6 6 7 13 15 13 13 15 20 21 21 16 16 15 14 12 10 10 10 11 12 13 13 14 15 16 16 17 19
27 29 40 31 33 29 25 24 26 30 25 27 24 21 22 20 17 11 10 9 7 6 7 15 15 13 13 19 21 21 17 15 15 16 14 12 12 12 13 14 14 15 17 18 19 19 21 22 24
25 32 22 32 30 32 28 29 25 25 26 24 27 23 23 20 17 19 22 14 12 11 11 15 14 11 13 20 17 17 15 15 16 16 15 14 14 14 15 15 16 18 20 21 22 23 26 29 30
24 24 19 20 22 26 30 27 28 25 29 28 25 26 26 25 23 23 19 22 19 11 14 15 15 13 15 16 16 16 15 15 16 17 16 15 15 16 16 18 19 21 23 24 25 28 31 33 36
14 16 22 18 20 22 24 26 26 22 19 24 25 23 25 25 27 21 21 25 16 11 17 16 14 14 17 16 18 17 15 15 16 17 16 16 17 19 19 20 22 24 25 27 31 33 36 39 41
28 23 24 22 18 18 20 22 23 21 19 20 21 25 28 28 26 24 19 16 15 14 15 14 15 17 18 18 20 18 15 15 16 17 17 18 19 20 21 23 25 27 30 33 36 39 41 42 42
26 27 18 17 19 17 14 6 21 23 24 24 24 28 30 29 25 19 18 17 17 13 14 15 18 18 18 20 22 19 16 17 18 18 18 19 20 22 24 27 29 32 35 38 40 42 43 45 46
27 24 22 21 19 17 15 9 21 23 23 25 29 30 27 26 23 21 22 20 17 12 17 20 20 19 20 21 23 18 18 19 20 20 21 23 24 27 29 32 35 37 39 40 42 45 47 49 51
24 20 17 16 14 5 18 16 13 20 22 21 25 25 26 23 21 18 17 18 18 17 20 21 21 20 20 22 21 18 19 21 22 24 25 27 30 33 35 36 37 37 40 43 46 49 52 53 54
22 15 2 2 2 5 6 15 25 10 14 16 16 16 16 16 15 14 16 19 18 19 20 21 21 20 22 22 20 20 22 24 27 29 32 34 36 37 36 36 39 42 44 48 50 52 52 52 53
19 19 5 5 4 4 9 9 15 18 26 25 16 15 15 14 13 14 14 14 15 16 18 21 21 22 23 24 24 25 27 29 32 34 35 36 35 35 38 41 44 47 49 51 51 51 50 51 51
13 19 15 0 2 0 6 10 9 12 17 19 20 16 14 13 13 12 11 11 11 14 17 20 22 24 25 26 27 28 30 33 35 34 33 34 37 40 44 46 49 50 49 49 49 49 48 48 47
5 15 11 4 2 2 3 6 15 10 22 15 14 18 14 12 11 10 10 9 10 14 18 20 22 24 26 27 29 32 33 32 32 34 36 39 42 45 48 49 49 48 47 46 45 45 44 46 46
7 13 5 7 2 2 2 2 2 9 11 9 10 14 14 12 10 9 8 9 12 14 16 20 24 26 27 29 30 31 32 33 34 37 39 43 48 48 48 47 46 44 43 43 44 44 45 46 46
6 7 8 8 8 8 2 6 7 4 4 9 10 11 11 10 9 9 10 12 13 15 19 22 24 26 28 30 31 32 32 34 37 40 45 50 49 48 46 45 43 43 42 43 44 43 44 46 45
Wind_Direction
237 242 247 256 243 242 251 242 240 236 232 238 247 267 267 277 279 306 336 359 9 10 90 115 153 150 138 67 2 2 6 239 259 285 309 351 354 326 312 311 313 319 322 325 332 348 350 357 2
239 246 245 244 233 245 248 234 247 246 256 267 248 260 246 265 268 284 355 20 17 18 23 28 11 104 78 349 336 340 334 317 299 296 297 307 306 302 299 302 308 315 322 324 327 336 343 349 350
240 244 244 237 238 242 251 238 240 227 237 243 240 210 190 145 117 97 48 32 12 15 12 6 353 354 7 18 23 47 49 46 22 356 348 338 323 309 304 309 309 310 310 311 314 320 326 328 332
241 246 242 233 238 234 246 236 227 230 261 241 180 169 147 135 121 87 49 17 5 7 5 358 2 6 63 73 74 70 72 69 65 50 37 21 21 21 40 31 19 3 337 329 325 330 342 347 356
238 243 242 241 241 248 244 239 226 239 258 227 188 173 152 121 102 82 60 22 10 11 358 1 31 68 84 81 76 72 61 48 43 26 22 52 64 28 8 352 335 336 333 335 337 336 336 333 332
236 237 238 240 240 244 237 240 226 225 231 214 182 178 178 84 63 38 23 16 0 10 24 58 89 98 91 89 77 72 46 21 6 8 354 324 309 306 307 310 310 306 303 304 302 302 306 306 310
234 236 239 245 244 241 232 234 213 220 222 206 189 170 170 187 35 21 15 360 356 359 1 45 101 89 67 63 74 64 42 356 332 323 312 308 303 302 299 298 298 294 292 289 291 296 298 301 306
234 235 237 239 238 241 243 236 211 220 220 210 190 190 177 129 20 7 354 343 350 353 8 49 110 94 60 69 87 52 354 335 321 314 309 307 303 297 294 294 290 287 285 285 289 295 300 307 314
232 234 235 236 236 233 231 220 214 215 220 223 214 182 202 218 341 339 326 337 342 339 15 95 130 87 58 65 66 15 347 342 332 321 313 307 303 299 294 292 290 287 285 286 289 294 302 313 324
226 232 234 236 239 237 235 225 226 219 223 226 230 222 232 242 284 310 327 338 340 347 29 145 112 93 53 49 40 354 356 352 341 328 320 315 308 299 295 292 290 289 286 284 287 302 322 333 333
228 234 235 237 237 236 233 227 229 226 229 229 255 245 238 235 269 299 327 316 313 206 127 143 138 76 32 18 7 359 3 350 341 334 326 319 308 297 291 287 283 279 274 275 288 310 326 336 337
230 235 235 236 240 224 228 236 237 231 230 225 248 240 237 233 257 266 298 308 306 262 164 130 238 293 322 345 337 350 359 345 340 334 324 316 305 294 287 282 272 263 259 264 285 303 311 314 320
230 232 235 236 240 233 230 236 244 230 222 229 239 227 237 232 246 250 278 288 294 291 274 271 284 293 284 294 330 339 342 336 333 328 320 312 300 287 276 269 265 264 265 268 272 282 293 302 309
231 231 232 237 238 242 227 237 237 229 227 222 238 236 231 230 244 251 274 273 285 293 297 259 285 292 283 280 319 330 329 324 323 321 315 306 294 281 272 265 262 260 258 262 269 277 287 297 304
228 231 228 235 236 242 234 235 232 226 221 226 228 223 229 231 246 254 264 266 280 286 280 270 279 290 278 285 320 318 320 314 315 317 311 299 286 275 269 263 260 260 266 272 275 280 285 290 297
220 218 222 226 231 230 234 233 233 232 230 226 223 216 228 239 245 249 263 248 271 276 290 269 275 275 271 294 305 310 308 304 306 310 305 294 281 273 269 266 265 266 269 271 276 280 283 288 295
215 219 223 227 228 224 223 229 232 233 238 232 224 231 233 235 248 286 275 272 266 250 275 263 271 265 285 303 299 300 296 294 300 303 297 283 271 267 266 266 267 269 272 277 280 282 285 289 293
206 210 218 223 223 222 224 230 233 235 233 227 233 239 239 244 263 276 281 280 287 283 242 257 260 263 283 295 298 293 290 288 295 296 290 279 270 268 268 268 270 273 276 280 283 286 289 292 294
218 220 213 216 222 231 230 230 236 236 238 243 242 234 247 248 256 268 271 281 281 262 245 262 261 264 285 292 307 297 283 285 289 291 287 278 274 273 272 272 273 276 279 282 284 287 290 293 295
200 210 215 219 221 229 234 241 245 251 247 244 253 244 240 244 266 267 274 278 269 264 254 253 253 269 286 296 303 301 279 281 286 287 280 274 273 273 273 272 274 278 281 284 287 292 296 297 298
215 218 211 212 226 218 227 238 235 241 243 245 246 243 244 256 262 267 257 264 277 274 251 243 250 269 281 291 300 296 277 278 282 282 276 272 273 276 277 278 280 281 283 286 289 291 295 297 299
212 224 217 223 220 225 225 258 246 243 246 244 244 244 245 257 258 246 252 262 284 266 243 246 256 264 278 288 298 290 275 276 278 280 279 279 280 279 278 278 279 282 286 289 292 294 295 296 296
217 221 220 228 235 240 241 242 257 249 245 244 246 250 247 253 249 250 261 262 269 243 244 245 252 265 277 289 297 279 271 273 280 285 285 283 282 282 283 286 289 291 293 294 294 294 293 292 292
211 217 220 220 237 251 245 224 258 248 247 245 246 254 247 246 247 247 247 258 257 234 235 242 252 267 281 292 291 277 275 277 279 280 283 285 287 288 289 290 290 290 290 291 291 292 293 294 294
217 204 97 132 190 215 246 228 241 251 224 250 251 241 243 236 231 240 248 260 253 233 231 243 256 268 279 284 280 276 277 280 285 288 290 290 290 289 289 288 288 289 290 291 291 291 291 292 292
218 215 177 193 181 206 224 223 228 237 248 256 257 244 220 218 224 245 252 248 237 232 235 245 257 267 274 277 279 282 285 287 289 289 289 288 287 287 288 289 291 292 292 291 290 289 289 289 290
209 209 220 201 95 146 224 237 252 248 254 251 245 230 216 223 238 248 241 238 236 237 242 250 258 266 273 280 284 286 287 288 287 287 287 287 288 290 291 291 291 290 289 288 288 289 290 291 291
213 213 199 217 98 277 289 251 240 258 253 260 234 222 228 235 243 234 226 232 236 240 246 255 266 274 280 283 284 284 285 286 285 285 288 291 293 295 294 293 291 291 292 293 293 293 294 293 292
147 167 153 152 180 180 308 261 305 251 253 254 237 224 226 234 228 227 241 243 242 247 260 268 271 275 278 279 281 283 285 287 288 289 292 297 300 298 295 294 295 296 295 295 295 294 293 292 292
221 199 179 170 201 214 219 290 290 307 290 243 214 215 220 220 222 239 258 258 256 262 266 270 274 277 278 282 286 288 288 291 297 300 302 303 300 298 298 299 299 298 297 296 295 295 296 296 295
Height
3168 3169 3169 3170 3174 3170 3167 3168 3167 3168 3169 3169 3168 3169 3170 3170 3171 3174 3170 3169 3169 3170 3169 3169 3169 3169 3169 3170 3170 3170 3171 3171 3172 3172 3173 3173 3173 3173 3173 3172 3172 3171 3171 3170 3169 3169 3169 3169 3168
3167 3167 3168 3168 3169 3167 3167 3166 3167 3168 3168 3168 3168 3168 3169 3170 3170 3171 3171 3170 3170 3170 3169 3169 3169 3169 3169 3170 3170 3170 3171 3171 3172 3172 3172 3172 3172 3172 3172 3172 3172 3171 3171 3170 3169 3169 3168 3169 3168
3165 3165 3167 3166 3165 3164 3165 3165 3166 3167 3167 3167 3168 3168 3169 3169 3170 3170 3170 3170 3170 3169 3169 3168 3168 3169 3169 3169 3169 3170 3171 3171 3172 3172 3172 3172 3172 3172 3171 3171 3171 3171 3170 3170 3169 3169 3168 3168 3168
3162 3164 3165 3162 3162 3163 3163 3164 3165 3166 3166 3167 3167 3169 3169 3169 3170 3170 3170 3169 3169 3169 3168 3168 3168 3168 3168 3169 3169 3170 3171 3171 3172 3172 3171 3171 3171 3171 3171 3171 3171 3171 3170 3170 3169 3169 3168 3168 3168
3159 3160 3160 3159 3160 3161 3162 3163 3164 3165 3166 3167 3167 3168 3169 3169 3169 3169 3169 3169 3168 3167 3167 3167 3167 3168 3168 3169 3170 3171 3171 3172 3172 3172 3171 3171 3172 3171 3171 3171 3171 3171 3170 3170 3169 3169 3168 3168 3167
3156 3156 3156 3156 3158 3160 3161 3161 3162 3164 3165 3166 3167 3167 3168 3169 3169 3169 3169 3168 3168 3167 3166 3166 3166 3167 3168 3169 3170 3171 3172 3172 3172 3172 3172 3171 3171 3171 3170 3170 3170 3170 3169 3169 3169 3168 3167 3167 3166
3152 3152 3152 3153 3156 3157 3158 3160 3160 3162 3163 3164 3166 3166 3168 3168 3168 3168 3168 3168 3167 3166 3166 3166 3166 3167 3168 3168 3170 3170 3171 3171 3171 3171 3170 3170 3169 3169 3169 3169 3169 3168 3168 3167 3167 3166 3166 3165 3165
3149 3148 3147 3149 3152 3154 3156 3157 3159 3161 3163 3163 3165 3166 3167 3167 3167 3167 3167 3166 3166 3165 3165 3165 3166 3167 3167 3168 3169 3169 3170 3170 3169 3169 3168 3168 3167 3167 3166 3166 3166 3166 3166 3165 3165 3165 3165 3164 3164
3144 3143 3142 3145 3149 3152 3152 3154 3157 3159 3160 3161 3163 3164 3166 3166 3167 3166 3165 3165 3165 3165 3165 3165 3165 3167 3167 3168 3168 3169 3168 3168 3167 3167 3166 3166 3165 3164 3164 3163 3163 3163 3163 3163 3163 3163 3163 3163 3163
3136 3135 3138 3144 3147 3149 3149 3151 3154 3156 3157 3158 3160 3162 3163 3165 3165 3165 3165 3165 3164 3164 3164 3165 3165 3166 3167 3167 3168 3168 3167 3166 3166 3165 3164 3163 3163 3162 3162 3161 3161 3162 3162 3162 3162 3161 3161 3162 3162
3129 3128 3137 3140 3143 3145 3146 3148 3149 3151 3153 3156 3157 3160 3162 3162 3163 3164 3163 3163 3163 3163 3163 3164 3165 3166 3166 3166 3166 3165 3165 3165 3164 3163 3162 3161 3161 3161 3160 3160 3160 3160 3160 3161 3161 3161 3161 3160 3161
3125 3126 3133 3137 3138 3140 3142 3144 3145 3147 3151 3154 3155 3158 3159 3160 3161 3162 3162 3162 3161 3161 3162 3162 3163 3164 3164 3165 3164 3164 3164 3164 3163 3162 3161 3160 3159 3159 3159 3159 3159 3159 3159 3159 3160 3160 3160 3159 3159
3118 3123 3129 3132 3133 3137 3139 3140 3141 3142 3145 3150 3151 3153 3156 3158 3158 3159 3160 3159 3159 3160 3160 3161 3162 3162 3163 3163 3163 3162 3163 3162 3161 3160 3158 3157 3157 3157 3157 3157 3157 3157 3157 3158 3158 3158 3158 3158 3157
3113 3119 3123 3126 3128 3131 3135 3137 3137 3139 3142 3145 3148 3150 3153 3154 3155 3156 3158 3157 3157 3157 3157 3158 3160 3161 3162 3162 3162 3162 3161 3160 3159 3158 3157 3155 3155 3155 3155 3155 3155 3155 3155 3156 3156 3155 3155 3155 3155
3109 3115 3118 3119 3123 3125 3129 3131 3132 3136 3138 3142 3144 3146 3148 3150 3151 3153 3155 3156 3155 3155 3155 3156 3158 3158 3159 3160 3159 3158 3158 3157 3157 3156 3154 3153 3152 3152 3152 3152 3153 3153 3153 3153 3153 3153 3153 3153 3152
3105 3109 3110 3113 3118 3121 3124 3124 3129 3132 3134 3137 3140 3142 3144 3145 3147 3149 3151 3153 3153 3154 3154 3154 3156 3156 3157 3157 3157 3155 3155 3154 3153 3152 3152 3151 3150 3150 3150 3150 3150 3150 3150 3150 3150 3149 3149 3149 3149
3097 3097 3101 3109 3113 3117 3120 3121 3124 3128 3130 3133 3136 3139 3140 3141 3144 3146 3147 3148 3149 3151 3152 3153 3153 3154 3155 3154 3153 3151 3151 3150 3150 3149 3149 3148 3148 3147 3147 3147 3147 3147 3147 3146 3146 3145 3145 3144 3143
3091 3095 3098 3104 3109 3112 3116 3119 3122 3124 3127 3129 3133 3136 3138 3140 3142 3141 3143 3145 3145 3148 3148 3150 3150 3150 3151 3151 3149 3148 3147 3147 3147 3146 3145 3144 3144 3144 3144 3144 3143 3143 3142 3142 3141 3139 3137 3136 3136
3093 3095 3099 3103 3106 3109 3113 3116 3118 3121 3123 3126 3129 3131 3134 3136 3137 3138 3139 3141 3142 3143 3144 3145 3146 3146 3148 3146 3145 3144 3144 3143 3143 3143 3143 3142 3142 3141 3140 3140 3139 3138 3137 3136 3135 3132 3130 3128 3126
3090 3093 3097 3102 3103 3107 3109 3111 3114 3116 3119 3121 3124 3125 3127 3129 3132 3133 3136 3138 3138 3139 3142 3141 3142 3144 3143 3142 3141 3140 3140 3140 3140 3139 3139 3138 3137 3137 3136 3135 3134 3133 3132 3130 3128 3126 3124 3122 3120
3088 3091 3095 3099 3102 3104 3106 3108 3109 3112 3114 3116 3118 3120 3123 3125 3127 3129 3131 3134 3134 3136 3136 3137 3139 3139 3138 3138 3137 3136 3136 3136 3136 3135 3135 3134 3134 3133 3132 3131 3130 3128 3126 3124 3121 3119 3117 3113 3111
3086 3090 3092 3096 3099 3101 3104 3103 3105 3108 3109 3111 3113 3115 3118 3121 3123 3125 3127 3129 3130 3130 3131 3133 3134 3134 3134 3133 3133 3131 3131 3132 3132 3132 3132 3130 3129 3128 3126 3125 3122 3120 3118 3115 3112 3109 3107 3105 3103
3085 3089 3092 3094 3098 3100 3101 3104 3099 3103 3104 3106 3107 3110 3113 3116 3118 3120 3122 3123 3123 3124 3127 3128 3128 3129 3129 3129 3128 3127 3128 3128 3127 3126 3125 3124 3123 3121 3118 3116 3113 3111 3108 3105 3103 3100 3098 3095 3092
3082 3087 3090 3093 3096 3097 3098 3101 3096 3098 3100 3102 3103 3105 3108 3111 3113 3115 3116 3117 3118 3119 3121 3123 3124 3125 3125 3124 3124 3124 3123 3122 3121 3120 3119 3117 3115 3113 3110 3108 3105 3102 3100 3097 3093 3090 3086 3082 3079
3081 3085 3090 3095 3096 3095 3093 3096 3093 3093 3094 3098 3099 3101 3104 3106 3109 3110 3112 3112 3113 3114 3117 3119 3120 3120 3120 3120 3119 3119 3118 3116 3115 3113 3111 3109 3107 3104 3102 3099 3096 3093 3090 3087 3083 3079 3075 3071 3068
3080 3084 3086 3091 3094 3091 3091 3089 3087 3089 3092 3094 3096 3097 3100 3103 3105 3107 3108 3108 3109 3111 3113 3115 3116 3116 3116 3115 3114 3113 3111 3109 3108 3106 3104 3101 3098 3096 3093 3090 3087 3083 3079 3075 3071 3067 3063 3060 3057
3079 3083 3088 3088 3088 3088 3086 3086 3086 3087 3088 3089 3091 3094 3097 3100 3102 3103 3104 3105 3106 3108 3110 3111 3112 3112 3111 3110 3108 3107 3105 3103 3101 3098 3096 3093 3090 3087 3084 3080 3076 3072 3067 3063 3059 3056 3052 3049 3046
3079 3083 3087 3087 3089 3089 3085 3085 3084 3084 3085 3086 3088 3091 3094 3096 3098 3100 3101 3103 3104 3105 3106 3107 3108 3107 3106 3104 3102 3101 3099 3096 3094 3091 3088 3085 3082 3078 3073 3069 3064 3060 3056 3052 3048 3045 3041 3037 3034
3080 3081 3084 3087 3090 3091 3088 3083 3082 3082 3083 3084 3086 3089 3091 3093 3095 3097 3099 3100 3101 3102 3103 3103 3103 3101 3100 3098 3096 3094 3091 3089 3086 3083 3080 3076 3071 3066 3061 3056 3053 3049 3045 3041 3037 3034 3029 3025 3022
3081 3081 3081 3085 3088 3087 3085 3084 3082 3082 3082 3082 3084 3087 3089 3091 3093 3094 3095 3096 3097 3098 3099 3098 3097 3095 3093 3091 3088 3086 3084 3081 3078 3074 3069 3064 3059 3054 3050 3046 3042 3037 3033 3029 3025 3022 3018 3013 3009